User: anonymous   Login
Location: Bogis-Bossey
(46.3500°N, 6.1667°E)
Time: 01:03:55
(UTC+00:00)
Language:

Cosmos 1356 Rocket - Orbit

View from above orbital plane
View from above orbital plane
View from above satellite
View from above satellite

Ground track
Ground track

The orbit data is extracted from the following two-line orbital elements,

1 13154U 82039B   22334.54268776  .00001476  00000-0  11533-3 0  9999
2 13154  81.1812 139.4165 0038129 281.3044  78.3892 14.99971467201907
Epoch (UTC): 30 November 2022 13:01:28
Eccentricity: 0.0038129
inclination: 81.1812°
perigee height: 540 km
apogee height: 593 km
right ascension of ascending node: 139.4165°
argument of perigee: 281.3044°
revolutions per day: 14.99971467
mean anomaly at epoch: 78.3892°
orbit number at epoch: 20190

The dashed part of the orbit path shows where the satellite is in the earth's shadow,  

DLR